Location: Newark
(20.0000°S, 47.0000°E)
Time: 19:44:57
(UTC+00:00)

Envisat - Pass Details

Date: 20 June 2019
Orbit: 764 x 766 km, 98.1° (Epoch: 22 August)

Event Time Altitude Azimuth Distance (km) Brightness Sun altitude
Exits shadow 16:03:18 27° 175° (S) 1,459 4.2 -23.2°
Maximum altitude 16:06:09 77° 257° (WSW) 789 3.0 -23.9°
Drops below altitude 10° 16:11:12 10° 343° (NNW) 2,291 5.9 -25.0°
Sets 16:13:29 0° 344° (NNW) 3,210 6.7 -25.5°
